Stations météo

réclame
Mon MeteoGroup
Siguenza, Espagne (8150): Température de l'air & dewpoint: 20.09.2018 05:00:00 - 26.09.2018 05:00:00 (CEST)Siguenza, Espagne (8150): visibility: 20.09.2018 05:00:00 - 26.09.2018 05:00:00 (CEST)Siguenza, Espagne (8150): Ensoleillement: 20.09.2018 05:00:00 - 26.09.2018 05:00:00 (CEST)Siguenza, Espagne (8150): Quantités de précipitations: 20.09.2018 05:00:00 - 26.09.2018 05:00:00 (CEST)
Date & Time tt [°C] td [°C] vv [km] sd [min] rr [mm]
26.09.2018 05:00:00 15,0 8,9 20 0 0,0
26.09.2018 04:00:00 14,7 8,0 20 0 0,0
26.09.2018 03:00:00 14,3 7,8 20 0 0,0
26.09.2018 02:00:00 14,7 7,3 20 0 -
26.09.2018 01:00:00 14,3 6,4 20 0 0,0
26.09.2018 00:00:00 14,2 5,6 20 0 0,0
25.09.2018 23:00:00 14,8 5,1 20 0 0,0
25.09.2018 22:00:00 15,7 5,0 20 0 0,0
25.09.2018 21:00:00 17,4 4,7 20 0 0,0
25.09.2018 20:00:00 - - - - -
25.09.2018 19:00:00 22,7 5,2 20 21 0,0
25.09.2018 18:00:00 24,8 5,6 20 0 0,0
25.09.2018 17:00:00 26,0 6,1 20 5 0,0
25.09.2018 16:00:00 27,6 9,0 20 60 0,0
25.09.2018 15:00:00 26,9 9,3 20 60 0,0
25.09.2018 14:00:00 25,7 9,1 20 31 -
25.09.2018 13:00:00 24,4 10,7 20 15 0,0
25.09.2018 12:00:00 20,5 2,4 20 12 0,0
25.09.2018 11:00:00 17,0 -4,8 20 1 0,0
25.09.2018 10:00:00 12,7 -4,4 20 8 0,0
25.09.2018 09:00:00 7,4 -0,8 20 10 0,0
25.09.2018 08:00:00 5,4 -2,2 20 0 -
25.09.2018 07:00:00 6,0 -2,8 20 0 0,0
25.09.2018 06:00:00 7,0 -2,4 20 0 0,0
25.09.2018 05:00:00 8,5 -1,6 20 0 0,0
25.09.2018 04:00:00 8,9 0,9 20 0 0,0
25.09.2018 03:00:00 9,4 2,3 20 0 0,0
25.09.2018 02:00:00 10,3 3,8 20 0 -
25.09.2018 01:00:00 10,5 4,4 20 0 0,0
25.09.2018 00:00:00 12,0 4,3 20 0 0,0
24.09.2018 23:00:00 13,8 4,4 20 0 0,0
24.09.2018 22:00:00 16,0 3,8 20 0 0,0
24.09.2018 21:00:00 18,8 4,9 20 0 0,0
24.09.2018 20:00:00 21,4 10,6 20 11 -
24.09.2018 19:00:00 23,7 10,7 20 33 0,0
24.09.2018 18:00:00 24,8 10,7 20 0 0,0
24.09.2018 17:00:00 25,5 11,3 20 4 0,0
24.09.2018 16:00:00 25,7 11,5 20 60 0,0
24.09.2018 15:00:00 25,1 11,7 20 60 0,0
24.09.2018 14:00:00 24,3 11,9 20 38 -
24.09.2018 13:00:00 23,0 12,6 20 18 0,0
24.09.2018 12:00:00 21,7 12,8 20 7 0,0
24.09.2018 11:00:00 20,2 12,7 20 6 0,0
24.09.2018 10:00:00 18,6 12,6 20 13 0,0
24.09.2018 09:00:00 16,5 12,5 20 14 0,0
24.09.2018 08:00:00 15,0 12,0 20 0 -
24.09.2018 07:00:00 15,2 11,8 20 0 0,0
24.09.2018 06:00:00 14,6 11,0 20 0 0,0
24.09.2018 05:00:00 13,7 10,9 20 0 0,0
24.09.2018 04:00:00 14,8 11,2 20 0 0,0
24.09.2018 03:00:00 15,7 11,7 20 0 0,0
24.09.2018 02:00:00 15,4 11,8 20 0 -
24.09.2018 01:00:00 16,7 12,5 20 0 0,0
24.09.2018 00:00:00 19,5 13,0 20 0 0,0
23.09.2018 23:00:00 19,9 12,2 20 0 0,0
23.09.2018 22:00:00 17,9 5,2 20 0 0,0
23.09.2018 21:00:00 19,4 6,5 20 0 0,0
23.09.2018 20:00:00 23,7 5,6 20 12 -
23.09.2018 19:00:00 27,9 4,2 20 27 0,0
23.09.2018 18:00:00 29,4 5,5 20 0 0,0
23.09.2018 17:00:00 30,6 5,1 20 4 0,0
23.09.2018 16:00:00 31,2 5,6 20 60 0,0
23.09.2018 15:00:00 30,8 5,3 20 60 0,0
23.09.2018 14:00:00 30,5 6,4 20 37 -
23.09.2018 13:00:00 29,2 7,7 20 14 0,0
23.09.2018 12:00:00 26,7 8,2 20 8 0,0
23.09.2018 11:00:00 21,3 11,9 20 1 0,0
23.09.2018 10:00:00 16,2 11,6 20 10 0,0
23.09.2018 09:00:00 11,9 9,5 20 8 0,0
23.09.2018 08:00:00 9,5 7,8 20 0 -
23.09.2018 07:00:00 10,2 8,1 20 0 0,0
23.09.2018 06:00:00 11,3 8,9 20 0 0,0
23.09.2018 05:00:00 12,1 9,1 20 0 0,0
23.09.2018 04:00:00 12,3 9,1 20 0 0,0
23.09.2018 03:00:00 12,7 9,0 20 0 0,0
23.09.2018 02:00:00 13,6 9,1 20 - -
23.09.2018 01:00:00 - - - - -
23.09.2018 00:00:00 - - - - -
22.09.2018 23:00:00 - - - - -
22.09.2018 22:00:00 16,3 8,3 20 0 0,0
22.09.2018 21:00:00 19,3 7,7 20 0 0,0
22.09.2018 20:00:00 23,2 7,7 20 3 -
22.09.2018 19:00:00 27,4 5,1 20 21 0,0
22.09.2018 18:00:00 28,7 7,3 20 1 0,0
22.09.2018 17:00:00 30,2 7,4 20 4 0,0
22.09.2018 16:00:00 29,2 7,2 20 57 0,0
22.09.2018 15:00:00 29,6 7,5 20 60 0,0
22.09.2018 14:00:00 28,8 8,0 20 36 -
22.09.2018 13:00:00 28,1 9,4 20 22 0,0
22.09.2018 12:00:00 25,7 10,7 20 8 0,0
22.09.2018 11:00:00 20,7 12,9 20 4 0,0
22.09.2018 10:00:00 15,6 11,8 20 13 0,0
22.09.2018 09:00:00 11,5 9,8 20 2 0,0
22.09.2018 08:00:00 9,6 8,4 20 0 -
22.09.2018 07:00:00 10,1 8,4 20 0 0,0
22.09.2018 06:00:00 11,0 9,1 20 0 0,0
22.09.2018 05:00:00 12,2 9,8 20 0 0,0
22.09.2018 04:00:00 12,9 9,9 20 0 0,0
22.09.2018 03:00:00 13,5 10,1 20 0 0,0
22.09.2018 02:00:00 14,0 10,2 20 0 -
22.09.2018 01:00:00 15,1 10,1 20 0 0,0
22.09.2018 00:00:00 16,3 9,7 20 0 0,0
21.09.2018 23:00:00 17,0 9,2 20 0 0,0
21.09.2018 22:00:00 18,4 9,7 20 0 0,0
21.09.2018 21:00:00 20,7 9,0 20 0 0,0
21.09.2018 20:00:00 23,3 8,2 20 0 -
21.09.2018 19:00:00 25,5 8,9 20 1 0,0
21.09.2018 18:00:00 26,4 8,4 20 0 0,0
21.09.2018 17:00:00 27,3 7,7 20 5 0,0
21.09.2018 16:00:00 28,0 7,8 20 60 0,0
21.09.2018 15:00:00 28,6 8,3 20 60 0,0
21.09.2018 14:00:00 27,8 7,6 20 39 -
21.09.2018 13:00:00 26,9 7,9 20 25 0,0
21.09.2018 12:00:00 24,3 8,3 20 3 0,0
21.09.2018 11:00:00 21,1 9,7 20 6 0,0
21.09.2018 10:00:00 16,3 12,3 20 8 0,0
21.09.2018 09:00:00 12,1 10,0 20 3 0,0
21.09.2018 08:00:00 10,0 8,8 20 0 -
21.09.2018 07:00:00 10,4 8,8 20 0 0,0
21.09.2018 06:00:00 11,1 9,5 20 0 0,0
21.09.2018 05:00:00 12,0 9,9 20 0 0,0
21.09.2018 04:00:00 12,8 10,2 20 0 0,0
21.09.2018 03:00:00 12,6 10,0 20 0 0,0
21.09.2018 02:00:00 12,9 10,1 20 0 -
21.09.2018 01:00:00 13,5 10,1 20 0 0,0
21.09.2018 00:00:00 14,0 10,4 20 0 0,0
20.09.2018 23:00:00 14,8 10,8 20 0 0,0
20.09.2018 22:00:00 16,4 10,7 20 0 0,0
20.09.2018 21:00:00 18,7 11,0 20 0 0,0
20.09.2018 20:00:00 21,6 10,4 20 11 -
20.09.2018 19:00:00 24,0 11,7 20 1 0,0
20.09.2018 18:00:00 26,3 9,6 20 2 0,0
20.09.2018 17:00:00 28,7 7,3 20 3 0,0
20.09.2018 16:00:00 28,6 9,3 20 56 0,0
20.09.2018 15:00:00 28,2 10,4 20 55 0,0
20.09.2018 14:00:00 28,2 10,0 20 37 -
20.09.2018 13:00:00 27,1 12,0 20 22 0,0
20.09.2018 12:00:00 24,5 14,0 20 11 0,0
20.09.2018 11:00:00 21,2 14,1 20 11 0,0
20.09.2018 10:00:00 15,9 13,4 20 8 0,0
20.09.2018 09:00:00 11,9 10,6 20 6 0,0
20.09.2018 08:00:00 10,0 8,9 20 0 -
20.09.2018 07:00:00 10,4 9,2 20 0 0,0
20.09.2018 06:00:00 10,7 9,3 20 0 0,0
20.09.2018 05:00:00 11,2 9,5 20 0 0,0

tt = Température de l'air
td = dewpoint
vv = visibility
sd = Ensoleillement
rr = Quantités de précipitations

stations d'obs. à proximité